Location: Gisborne
(38.6530°S, 178.0040°E)
Time: 12:48:34
(UTC+13:00)

Cosmos 968 Rocket - Pass Details

Date: 24 January 2019
Orbit: 742 x 770 km, 74.0° (Epoch: 19 February)

Event Time Altitude Azimuth Distance (km) Brightness Sun altitude
Exits shadow 23:08:48 69° 8° (N) 817 3.3 -24.5°
Maximum altitude 23:09:24 81° 73° (ENE) 779 3.3 -24.5°
Drops below altitude 10° 23:14:41 10° 159° (SSE) 2,324 6.4 -25.1°
Sets 23:17:05 0° 160° (SSE) 3,262 7.3 -25.4°
